{"data":{"norad_id":57899,"intl_designator":"2023-146J","name":"STARLINK-30481","alt_names":[],"object_type":"PAYLOAD","status":"ACTIVE","operator":null,"country":"US","launch_date":"2023-09-20","launch_site_code":"AFETR","launch_vehicle":null,"mission":null,"orbit_class":"UNKNOWN","rcs_meters":null,"size_class":null,"mass_kg":null,"dimensions":null,"purposes":["comms"],"wikipedia_slug":null,"has_3d_model":false,"image_url":null,"decayed_at":null,"tle_current":{"epoch":"2026-05-24T23:40:45.302016Z","epoch_age_seconds":70118,"freshness":"FRESH","line1":"1 57899U 23146J   26144.98663544  .00001047  00000+0  47586-4 0  9991","line2":"2 57899  43.0050 243.4250 0001856 257.0613 103.0031 15.27580336148726","mean_motion":15.27580336,"eccentricity":0.0001856,"inclination_deg":43.005,"raan_deg":243.425,"arg_perigee_deg":257.0613,"mean_anomaly_deg":103.0031,"bstar":4.7586e-5,"rev_number":14872,"period_min":94.266727979143,"perigee_km":481.77465398227,"apogee_km":484.32152588765,"semimajor_km":6861.185089935,"source":"CELESTRAK","updated_at":"2026-05-25T13:38:18.453484Z"}}}